Regional Weather Roundup
Issued by NWS Boston, MA

Current Version | Previous Version | Text Only | Print | Product List | Glossary Off
Versions: 1 2 3 4 5 6 7 8 9 10 11 12 13 14 15 16 17 18 19 20 21 22 23 24 25 26 27 28 29 30 31 32 33 34 35 36 37 38 39 40 41 42 43 44 45 46 47 48 49 50
672 ASUS41 KBOX 240510 RWRBOX REGIONAL WEATHER ROUNDUP NATIONAL WEATHER SERVICE TAUNTON MA 100 AM EDT FRI MAR 24 2017 NOTE: "FAIR" INDICATES FEW OR NO CLOUDS BELOW 12,000 FEET WITH NO SIGNIFICANT WEATHER AND/OR OBSTRUCTIONS TO VISIBILITY. MAZALL-240600- EASTERN MASSACHUSETTS CITY SKY/WX TMP DP RH WIND PRES REMARKS BOSTON CLEAR 32 5 32 W9 30.54R WCI 24 BEVERLY CLEAR 24 8 50 NW3 30.52R LAWRENCE CLEAR 25 7 46 CALM 30.54R BEDFORD PTCLDY 24 8 50 NW3 30.52R BLUE HILL N/A 25 5 42 W9 30.49R WCI 15 NORWOOD CLEAR 22 15 75 CALM 30.54R MARSHFIELD CLEAR 25 9 50 W5 30.54R WCI 19 PLYMOUTH CLEAR 22 10 60 CALM 30.53R TAUNTON CLEAR 22 10 60 CALM 30.53S NEW BEDFORD CLEAR 25 10 53 CALM 30.53S $$ MAZALL-240600- CAPE COD AND THE ISLANDS CITY SKY/WX TMP DP RH WIND PRES REMARKS FALMOUTH CLEAR 25 7 46 MISG 30.54S HYANNIS CLEAR 30 6 36 NW3 30.52R CHATHAM CLEAR 30 9 41 NW5 30.54R WCI 25 PROVINCETOWN CLEAR 34 16 47 W9 30.54R WCI 27 NANTUCKET CLEAR 30 12 47 W7 30.54S WCI 23 MARTHAS VNYRD CLEAR 19 8 62 CALM 30.54S $$ MAZALL-240600- CENTRAL AND WESTERN MASSACHUSETTS CITY SKY/WX TMP DP RH WIND PRES REMARKS WORCESTER CLOUDY 25 4 40 W7 30.48R WCI 17 FITCHBURG CLOUDY 27 10 49 CALM 30.52R ORANGE PTCLDY 23 14 68 CALM 30.50S SPRINGFIELD CLOUDY 22 13 67 CALM 30.51R WESTFIELD CLEAR 22 12 65 CALM 30.51R NORTH ADAMS CLOUDY 23 13 65 CALM 30.50S PITTSFIELD CLOUDY 19 8 62 CALM 30.45F $$ RIZALL-240600- RHODE ISLAND CITY SKY/WX TMP DP RH WIND PRES REMARKS PROVIDENCE CLEAR 29 4 34 W5 30.54S WCI 24 NEWPORT CLEAR 25 12 58 CALM 30.53F BLOCK ISLAND CLEAR 32 8 36 W6 30.54F WCI 26 SMITHFIELD CLEAR 26 7 44 W5 30.51S WCI 20 WESTERLY CLEAR 24 12 60 CALM 30.55R $$ CTZALL-240600- CONNECTICUT CITY SKY/WX TMP DP RH WIND PRES REMARKS BRADLEY INTL PTCLDY 25 8 48 CALM 30.54R HARTFORD PTCLDY 26 12 55 CALM 30.55R BRIDGEPORT CLEAR 30 18 60 CALM 30.55R DANBURY CLEAR 22 14 71 CALM 30.53S GROTON CLEAR 23 12 62 CALM 30.55R NEW HAVEN CLEAR 25 15 66 CALM 30.54R CHESTER FAIR 25 9 50 CALM 30.53R MERIDEN PTCLDY 25 15 66 CALM 30.54R WILLIMANTIC PTCLDY 23 16 74 CALM 30.55R OXFORD CLEAR 25 5 42 CALM 30.50F $$ MEZ002-015-021-024-NHZ003-005-008-011-012-014-VTZ005-008-240600- NORTHERN NEW ENGLAND CITY SKY/WX TMP DP RH WIND PRES REMARKS PORTLAND ME CLEAR 23 3 42 CALM 30.52R BANGOR ME MOCLDY 17 0 47 SW6 30.48R WCI 9 CONCORD NH CLOUDY 24 11 57 CALM 30.50S MANCHESTER NH CLOUDY 28 7 41 CALM 30.50 NASHUA NH NOT AVBL PORTSMOUTH NH MOCLDY 27 5 39 CALM 30.51R JAFFREY NH CLOUDY 22 8 55 S6 30.47R WCI 14 KEENE NH CLOUDY 23 13 65 CALM 30.50 BURLINGTON VT CLOUDY 25 9 50 CALM 30.43F MT. WASHINGTON PTCLDY 9 -45 7 W21 N/A WCI -11 $$ NYZ052-076-240600- EASTERN NEW YORK CITY SKY/WX TMP DP RH WIND PRES REMARKS ALBANY CLOUDY 29 9 43 S3 30.49F NEW YORK CITY PTCLDY 40 20 44 S6 30.53S $$ ANZALL-240600- MARINE OBSERVATIONS STATION/POSITION TIME TEMP WIND PRES VSBY WAVE AIR SEA DIR/SP/G HT/PER (UTC) (F) (DEG/KT/KT) (MB) (MI) (FT/S) BOSTON BUOY 0350 36 40 300/ 10/ 12 1033.2 2/ 4 BUZZARDS BAY 0400 35 300/ 12/ 14 1034.6F NANTUCKET SOUND 0450 38 1033.7F 1/ 3 MASS BAY-STELLWA 0404 35 38 310/ 10/ 12 1032.2R 2/ 4 ISLE OF SHOALS 0400 32 310/ 13/ 14 1032.7F S OF BLOCK IS 0455 40 N/A 3/ 5 $$ ......................KEY......................... SKY/WX - SKY CONDITION/PRESENT WEATHER TMP - TEMPERATURE IN FAHRENHEIT DWPT - DEWPOINT IN FAHRENHEIT RH - RELATIVE HUMIDITY IN PERCENT WIND - DIRECTION AND SPEED IN MPH PRES - MEAN SEA LEVEL PRESSURE IN INCHES OF HG WCI - WIND CHILL INDEX VSB - VISIBILITY IN MILES HX - HEAT INDEX TC - TEMPERATURE IN CELSIUS VRB - VARIABLE WIND DIRECTION N/A - NOT AVAILABLE

USA.gov is the U.S. government's official web portal to all federal, state and local government web resources and services.